Prairie Du Chien, WI

12:07 PM CST on February 22, 2017 (GMT -0600)
Prairie Du Chien Municipal

Weather History for KPDC - April, 2014

Change the Weather History Date:

Thursday, April 17, 2014

  Actual Average Record
Temperature  
Mean Temperature 41 °F -  
Max Temperature 48 °F 64 °F 86 °F (1977)
Min Temperature 32 °F 38 °F 22 °F (1983)
Degree Days  
Heating Degree Days 24    
Moisture  
Dew Point 31 °F    
Average Humidity 65    
Maximum Humidity 86    
Minimum Humidity 41    
Precipitation  
Precipitation 0.00 in - - ()
Sea Level Pressure  
Sea Level Pressure 30.15 in    
Wind  
Wind Speed 12 mph (West)    
Max Wind Speed 20 mph    
Max Gust Speed 30 mph    
Visibility 10 miles    
Events      
Averages and records for this station are not official NWS values.
T = Trace of Precipitation, MM = Missing Value Source: NWS Daily Summary

Daily Weather History Graph

Daily Weather History Graph

Search for Another Location

Airport or City:

Trip Planner

Search our weather history database for the weather conditions in past years. The results will help you decide how hot, cold, wet, or windy it might be!

Date:

Astronomy

Apr. 17, 2014 Rise Set
Actual Time 6:19 AM CDT 7:49 PM CDT
Civil Twilight 5:49 AM CDT 8:19 PM CDT
Nautical Twilight 5:13 AM CDT 8:55 PM CDT
Astronomical Twilight 4:35 AM CDT 9:33 PM CDT
Moon 10:38 PM CDT (4/17) 7:48 AM CDT (4/17)
Length of Visible Light 14h 29m
Length of Day
13h 30m
Waning Gibbous, 93% of the Moon is Illuminated
Apr 17
Waning Gibbous
Apr 22
Last Quarter
Apr 29
New
May 6
First Quarter
May 14
Full

Hourly Weather History & Observations

Time (CDT) Temp. Windchill Dew Point Humidity Pressure Visibility Wind Dir Wind Speed Gust Speed Precip Events Conditions
12:15 AM 49.5 °F - 26.4 °F 41% 29.90 in 10.0 mi SE 19.6 mph 29.9 mph N/A   Overcast
12:35 AM 49.1 °F - 26.4 °F 41% 29.91 in 10.0 mi SE 18.4 mph 24.2 mph N/A   Scattered Clouds
12:55 AM 48.7 °F - 26.4 °F 42% 29.91 in 10.0 mi SE 12.7 mph 21.9 mph N/A   Mostly Cloudy
1:15 AM 48.6 °F - 26.4 °F 42% 29.92 in 10.0 mi SE 9.2 mph 17.3 mph N/A   Overcast
1:35 AM 48.4 °F - 26.6 °F 43% 29.92 in 10.0 mi SE 9.2 mph 23.0 mph N/A   Overcast
1:55 AM 48.6 °F - 26.2 °F 42% 29.92 in 10.0 mi SE 12.7 mph 19.6 mph N/A   Overcast
2:15 AM 48.7 °F - 26.2 °F 42% 29.92 in 10.0 mi SSE 11.5 mph 23.0 mph N/A   Overcast
2:35 AM 48.4 °F - 26.6 °F 43% 29.91 in 10.0 mi SSE 12.7 mph 20.7 mph N/A   Overcast
2:55 AM 48.2 °F - 27.0 °F 44% 29.91 in 10.0 mi South 12.7 mph 20.7 mph N/A   Overcast
3:15 AM 48.2 °F - 27.5 °F 45% 29.92 in 10.0 mi South 12.7 mph 23.0 mph N/A   Overcast
3:35 AM 47.1 °F - 29.3 °F 50% 29.92 in 10.0 mi South 9.2 mph 17.3 mph N/A   Overcast
3:55 AM 46.6 °F - 32.5 °F 58% 29.92 in 10.0 mi South 12.7 mph - N/A   Overcast
4:15 AM 45.9 °F 38.8 °F 36.7 °F 70% 29.94 in 10.0 mi WSW 17.3 mph 20.7 mph N/A   Overcast
4:35 AM 42.4 °F 35.0 °F 36.1 °F 78% 29.96 in 10.0 mi West 15.0 mph 21.9 mph N/A   Overcast
4:55 AM 40.5 °F 34.6 °F 35.6 °F 83% 29.97 in 10.0 mi WSW 9.2 mph 20.7 mph N/A   Overcast
5:15 AM 39.7 °F 31.9 °F 34.9 °F 83% 29.99 in 10.0 mi WSW 13.8 mph 18.4 mph N/A   Overcast
5:35 AM 38.3 °F 30.5 °F 33.4 °F 83% 30.00 in 10.0 mi WSW 12.7 mph 18.4 mph N/A   Overcast
5:55 AM 37.8 °F 29.0 °F 32.9 °F 83% 30.01 in 10.0 mi SW 15.0 mph 19.6 mph N/A   Overcast
6:15 AM 37.6 °F 30.5 °F 32.5 °F 82% 30.03 in 10.0 mi WSW 10.4 mph - N/A   Overcast
6:35 AM 37.4 °F 29.3 °F 32.2 °F 81% 30.05 in 10.0 mi West 12.7 mph 18.4 mph N/A   Overcast
6:55 AM 36.7 °F 27.6 °F 32.0 °F 83% 30.07 in 10.0 mi West 15.0 mph 24.2 mph N/A   Overcast
7:15 AM 36.5 °F 27.0 °F 32.0 °F 84% 30.08 in 10.0 mi WSW 16.1 mph 20.7 mph N/A   Overcast
7:35 AM 36.1 °F 27.7 °F 32.0 °F 85% 30.09 in 10.0 mi WSW 12.7 mph 17.3 mph N/A   Overcast
7:55 AM 36.1 °F 32.3 °F 32.0 °F 85% 30.11 in 10.0 mi WSW 4.6 mph - N/A   Overcast
8:15 AM 36.1 °F 29.3 °F 32.0 °F 85% 30.13 in 10.0 mi WSW 9.2 mph - N/A   Overcast
8:35 AM 36.5 °F 29.2 °F 32.0 °F 84% 30.14 in 10.0 mi West 10.4 mph - N/A   Overcast
8:55 AM 36.5 °F 28.7 °F 32.0 °F 84% 30.14 in 10.0 mi West 11.5 mph - N/A   Overcast
9:15 AM 37.0 °F 29.3 °F 32.0 °F 82% 30.15 in 10.0 mi West 11.5 mph 17.3 mph N/A   Overcast
9:35 AM 37.4 °F 32.1 °F 32.0 °F 81% 30.16 in 10.0 mi West 6.9 mph 17.3 mph N/A   Overcast
9:55 AM 38.5 °F 31.6 °F 32.0 °F 78% 30.17 in 10.0 mi West 10.4 mph - N/A   Overcast
10:15 AM 39.2 °F 33.0 °F 32.0 °F 75% 30.17 in 10.0 mi West 9.2 mph - N/A   Overcast
10:35 AM 40.6 °F 34.3 °F 32.5 °F 73% 30.18 in 10.0 mi WSW 10.4 mph - N/A   Overcast
10:55 AM 41.7 °F 36.1 °F 32.7 °F 70% 30.19 in 10.0 mi West 9.2 mph - N/A   Overcast
11:15 AM 43.0 °F 37.7 °F 33.1 °F 68% 30.19 in 10.0 mi West 9.2 mph - N/A   Overcast
11:35 AM 44.8 °F 39.9 °F 33.4 °F 64% 30.19 in 10.0 mi West 9.2 mph - N/A   Overcast
11:55 AM 45.5 °F 40.3 °F 33.4 °F 63% 30.20 in 10.0 mi West 10.4 mph - N/A   Overcast
12:15 PM 45.7 °F 40.6 °F 33.3 °F 62% 30.21 in 10.0 mi West 10.4 mph - N/A   Overcast
12:35 PM 46.4 °F 42.4 °F 33.8 °F 62% 30.21 in 10.0 mi West 8.1 mph - N/A   Overcast
12:55 PM 46.4 °F 41.5 °F 33.6 °F 61% 30.22 in 10.0 mi West 10.4 mph - N/A   Overcast
1:15 PM 47.3 °F - 33.6 °F 59% 30.22 in 10.0 mi West 9.2 mph - N/A   Overcast
1:35 PM 47.7 °F - 33.4 °F 58% 30.22 in 10.0 mi West 12.7 mph 17.3 mph N/A   Overcast
1:55 PM 47.8 °F - 33.3 °F 57% 30.23 in 10.0 mi West 12.7 mph - N/A   Overcast
2:15 PM 47.5 °F - 33.1 °F 57% 30.23 in 10.0 mi West 9.2 mph - N/A   Overcast
2:35 PM 47.5 °F - 32.9 °F 57% 30.24 in 10.0 mi WNW 11.5 mph - N/A   Overcast
2:55 PM 48.0 °F - 33.1 °F 56% 30.24 in 10.0 mi West 10.4 mph - N/A   Overcast
3:15 PM 48.2 °F - 32.9 °F 55% 30.24 in 10.0 mi WNW 8.1 mph - N/A   Mostly Cloudy
3:35 PM 48.0 °F - 32.7 °F 55% 30.24 in 10.0 mi NW 5.8 mph - N/A   Mostly Cloudy
3:55 PM 48.2 °F - 32.7 °F 55% 30.24 in 10.0 mi West 6.9 mph - N/A   Scattered Clouds
4:15 PM 48.0 °F - 32.5 °F 55% 30.24 in 10.0 mi NNW 10.4 mph - N/A   Scattered Clouds
4:35 PM 48.0 °F - 32.5 °F 55% 30.24 in 10.0 mi WNW 8.1 mph - N/A   Clear
4:55 PM 48.7 °F - 32.7 °F 54% 30.24 in 10.0 mi WNW 6.9 mph - N/A   Clear
5:15 PM 48.2 °F - 32.2 °F 54% 30.25 in 10.0 mi WNW 9.2 mph - N/A   Clear
5:35 PM 48.2 °F - 32.0 °F 54% 30.25 in 10.0 mi WNW 8.1 mph - N/A   Clear
5:55 PM 48.2 °F - 32.0 °F 54% 30.25 in 10.0 mi WNW 9.2 mph - N/A   Clear
6:15 PM 46.8 °F - 31.8 °F 56% 30.25 in 10.0 mi NW 11.5 mph - N/A   Clear
6:35 PM 46.0 °F 41.0 °F 31.8 °F 58% 30.25 in 10.0 mi NNW 10.4 mph - N/A   Clear
6:55 PM 45.0 °F 40.6 °F 31.3 °F 59% 30.26 in 10.0 mi NNW 8.1 mph - N/A   Clear
7:15 PM 43.9 °F 38.8 °F 31.1 °F 61% 30.26 in 10.0 mi NNW 9.2 mph - N/A   Clear
7:35 PM 43.0 °F 37.2 °F 30.7 °F 62% 30.26 in 10.0 mi NW 10.4 mph - N/A   Clear
7:55 PM 41.7 °F 36.1 °F 30.7 °F 65% 30.27 in 10.0 mi NNW 9.2 mph - N/A   Clear
8:15 PM 40.3 °F 33.9 °F 30.2 °F 67% 30.28 in 10.0 mi NNW 10.4 mph - N/A   Clear
8:35 PM 39.4 °F 32.7 °F 30.2 °F 70% 30.29 in 10.0 mi NW 10.4 mph - N/A   Clear
8:55 PM 39.0 °F 33.4 °F 30.0 °F 70% 30.29 in 10.0 mi NW 8.1 mph - N/A   Clear
9:15 PM 38.3 °F 33.9 °F 30.2 °F 73% 30.30 in 10.0 mi NNW 5.8 mph - N/A   Clear
9:35 PM 37.6 °F 34.0 °F 30.2 °F 75% 30.31 in 10.0 mi NNW 4.6 mph - N/A   Clear
9:55 PM 37.4 °F - 29.8 °F 74% 30.31 in 10.0 mi Calm Calm - N/A   Clear
10:15 PM 36.3 °F 33.7 °F 30.0 °F 78% 30.32 in 10.0 mi WNW 3.5 mph - N/A   Clear
10:35 PM 35.8 °F - 29.8 °F 79% 30.32 in 10.0 mi Calm Calm - N/A   Clear
10:55 PM 36.1 °F - 29.8 °F 78% 30.31 in 10.0 mi Calm Calm - N/A   Clear
11:15 PM 34.7 °F - 29.5 °F 81% 30.31 in 10.0 mi Calm Calm - N/A   Clear
11:35 PM 33.6 °F - 29.1 °F 84% 30.31 in 10.0 mi Calm Calm - N/A   Clear
11:55 PM 32.2 °F - 28.4 °F 86% 30.31 in 10.0 mi Calm Calm - N/A   Clear